Tracking 26492 objects as of 8-Dec-2022
HD Live streaming from Space Station
objects crossing your sky now

MEZNSAT

Track MEZNSAT now!
10-day predictions
MEZNSAT is classified as:


NORAD ID: 46489
Int'l Code: 2020-068D
Perigee: 537.0 km
Apogee: 564.0 km
Inclination: 97.7 °
Period: 95.5 minutes
Semi major axis: 6921 km
RCS: Unknown
Launch date: September 28, 2020
Source: (UNK)
Launch site: PLESETSK MISSILE AND SPACE COMPLEX (PKMTR)

Uplink (MHz):
Downlink (MHz): 436.600
Beacon (MHz):
Mode: 1k2/2k4/4k8 BPSK
Call sign: A68MZ
Status: Active

aabbcc
Your satellite tracking list
Your tracking list is empty




NASA's NSSDC Master Catalog

Two Line Element Set (TLE):
1 46489U 20068D   22339.77881496  .00006345  00000-0  41873-3 0  9990
2 46489  97.7467 282.3750 0019519  55.7403 304.5670 15.07654134120047
Source of the keplerian elements: AFSPC